Location: Dammartin
(48.9032°N, 1.6195°E)
Time: 12:41:06
(UTC+00:00)

Cosmos 2333 - Pass Details

Date: 03 February 2023
Orbit: 828 x 867 km, 70.9° (Epoch: 25 March)

Event Time Altitude Azimuth Distance (km) Brightness Sun altitude
Rises 18:32:55 0° 185° (S) 3,359 7.5 -16.5°
Reaches altitude 10° 18:35:26 10° 179° (S) 2,433 6.7 -16.9°
Maximum altitude 18:40:41 44° 109° (ESE) 1,149 4.5 -17.7°
Enters shadow 18:43:20 26° 55° (NE) 1,591 5.2 -18.2°
